TimeEST,TemperatureF,Dew PointF,Humidity,Sea Level PressureIn,VisibilityMPH,Wind Direction,Wind SpeedMPH,Gust SpeedMPH,PrecipitationIn,Events,Conditions,WindDirDegrees,DateUTC
12:53 AM,57.9,55.0,90,30.22,9.0,Calm,Calm,-,N/A,,Clear,0,2013-11-15 05:53:00
1:53 AM,57.9,55.0,90,30.22,10.0,North,3.5,-,N/A,,Partly Cloudy,350,2013-11-15 06:53:00
2:53 AM,59.0,55.9,90,30.21,10.0,NNW,4.6,-,N/A,,Clear,340,2013-11-15 07:53:00
3:53 AM,59.0,55.9,90,30.20,10.0,Calm,Calm,-,N/A,,Clear,0,2013-11-15 08:53:00
4:53 AM,59.0,55.9,90,30.20,9.0,NNW,3.5,-,N/A,,Clear,330,2013-11-15 09:53:00
5:53 AM,60.1,57.0,90,30.21,10.0,North,4.6,-,N/A,,Clear,350,2013-11-15 10:53:00
6:53 AM,60.1,57.0,90,30.21,9.0,Calm,Calm,-,N/A,,Clear,0,2013-11-15 11:53:00
7:53 AM,61.0,57.9,90,30.25,8.0,North,3.5,-,N/A,,Clear,350,2013-11-15 12:53:00
8:53 AM,63.0,60.1,90,30.25,9.0,North,4.6,-,N/A,,Partly Cloudy,350,2013-11-15 13:53:00
9:53 AM,64.9,60.1,84,30.25,10.0,NNW,4.6,-,N/A,,Clear,330,2013-11-15 14:53:00
10:53 AM,68.0,61.0,78,30.24,10.0,NNE,6.9,-,N/A,,Scattered Clouds,20,2013-11-15 15:53:00
11:53 AM,68.0,61.0,78,30.22,10.0,North,6.9,-,N/A,,Overcast,360,2013-11-15 16:53:00
12:53 PM,68.0,63.0,84,30.19,10.0,Calm,Calm,-,0.00,Rain,Light Rain,0,2013-11-15 17:53:00
1:53 PM,68.0,64.0,87,30.17,10.0,Calm,Calm,-,0.01,Rain,Light Rain,0,2013-11-15 18:53:00
2:53 PM,68.0,64.9,90,30.14,9.0,SE,3.5,-,0.00,Rain,Light Rain,130,2013-11-15 19:53:00
3:53 PM,68.0,64.0,87,30.14,10.0,Calm,Calm,-,0.01,Rain,Light Rain,0,2013-11-15 20:53:00
4:53 PM,66.9,64.0,90,30.14,8.0,SE,4.6,-,0.01,Rain,Light Rain,140,2013-11-15 21:53:00
5:53 PM,66.0,62.1,87,30.13,10.0,SE,4.6,-,0.01,Rain,Light Rain,140,2013-11-15 22:53:00
6:53 PM,64.9,61.0,87,30.11,10.0,SE,6.9,-,0.00,Rain,Light Rain,130,2013-11-15 23:53:00
7:53 PM,64.9,61.0,87,30.11,10.0,East,3.5,-,0.00,Rain,Light Rain,90,2013-11-16 00:53:00
8:33 PM,64.4,62.6,94,30.13,10.0,North,8.1,-,0.00,,Mostly Cloudy,350,2013-11-16 01:33:00
8:40 PM,64.4,62.6,94,30.14,10.0,North,10.4,-,0.00,,Overcast,350,2013-11-16 01:40:00
8:53 PM,64.9,62.1,90,30.14,10.0,North,5.8,-,0.00,,Overcast,360,2013-11-16 01:53:00
9:53 PM,64.0,61.0,90,30.13,10.0,North,4.6,-,N/A,,Partly Cloudy,10,2013-11-16 02:53:00
10:53 PM,64.0,61.0,90,30.14,10.0,North,4.6,-,N/A,,Clear,10,2013-11-16 03:53:00
11:53 PM,63.0,60.1,90,30.14,10.0,NNE,3.5,-,N/A,,Clear,20,2013-11-16 04:53:00